Location: Luxembourg
(49.6117°N, 6.1300°E)
Time: 19:00:20
(UTC+01:00)

X-37B - Pass Details

Date: 11 December 2021
Orbit: 334 x 337 km, 45.0° (Epoch: 11 January)

Event Time Altitude Azimuth Distance (km) Brightness Sun altitude
Rises 17:59:07 0° 239° (WSW) 2,100 6.2 -12.8°
Reaches altitude 10° 18:01:18 10° 225° (SW) 1,264 4.3 -13.1°
Maximum altitude 18:03:43 25° 167° (SSE) 723 2.0 -13.5°
Enters shadow 18:05:04 17° 125° (SE) 934 2.2 -13.7°
